User: anonymous   Login
Location: Unspecified
(0.0000°N, 0.0000°E)
Time: 10:33:50
(UTC+00:00)
Language:

MSX - Orbit

View from above orbital plane
View from above orbital plane
View from above satellite
View from above satellite

Ground track
Ground track

The orbit data is extracted from the following two-line orbital elements,

1 23851U 96024A   18220.27565180 0.00000000  00000-0  00000-0 0    00
2 23851  98.6868 208.4229 0007004 252.8642 107.1357 13.98066830    01
Epoch (UTC): 08 August 2018 06:36:56
Eccentricity: 0.0007004
inclination: 98.6868°
perigee height: 895 km
apogee height: 905 km
right ascension of ascending node: 208.4229°
argument of perigee: 252.8642°
revolutions per day: 13.98066830
mean anomaly at epoch: 107.1357°
orbit number at epoch: 0

The dashed part of the orbit path shows where the satellite is in the earth's shadow,  

DLR